[[{"header":{"parameterUnit":"m.s-1","parameterCategory":1,"la1":30.2991,"la2":30.254,"lo1":-89.0895,"lo2":-89.0444,"dy":0.0017,"dx":0.0017,"nx":28,"ny":28,"refTime":"2024-06-08T09:00:00:Z","depth":0,"parameterNumber":2,"parameterNumberName":"U-component_of_WINDS"},"data":[0,0,0,0,0,0,0,0,0,0,0,0,0,0,0,0,0,0,0,0,0,0,0,0,0,0,0,0,0,0,0,0,0,0,0,0,0,0,0,0,0,0,0,0,0,0,0,0,0,0,0,0,0,0,0,0,0,0,-2.1045,-2.1044,0,-2.0973,-2.0972,-2.0971,-2.0841,-2.0838,-2.0836,-2.0833,-2.0761,-2.0761,-2.0762,0,0,0,0,0,0,0,0,0,0,0,0,0,-2.1074,-2.1074,-2.1045,-2.1044,-2.1043,-2.0973,-2.0972,-2.0971,-2.0841,-2.0838,-2.0835,-2.0832,-2.0761,-2.0761,-2.0762,0,0,0,0,0,0,0,0,0,0,0,0,0,-2.1038,-2.1075,-2.1045,-2.097,-2.0963,-2.0973,-2.0972,-2.0971,-2.0842,-2.0838,-2.0834,-2.0831,-2.0761,-2.0761,-2.0762,-2.084,0,0,-2.0764,-2.0764,0,0,0,0,0,0,0,0,-2.104,-2.1037,-2.0982,-2.0975,-2.0967,-2.0912,-2.0955,-2.0927,-2.0843,-2.0888,-2.0833,-2.0829,-2.0814,-2.081,-2.0805,-2.0837,-2.0834,-2.0764,-2.0764,-2.0764,-2.0764,0,0,0,0,0,0,0,-2.1043,-2.1039,-2.1016,-2.0981,-2.0972,-2.0941,-2.0932,-2.0949,-2.0873,-2.0884,-2.0874,-2.0867,-2.0809,-2.0805,-2.0802,-2.0833,-2.0764,-2.0764,-2.0765,-2.0765,-2.0928,-2.0932,0,0,0,0,0,0,-2.1056,-2.1042,-2.1019,-2.1014,-2.0995,-2.0944,-2.0933,-2.0933,-2.0872,-2.0859,-2.087,-2.0861,-2.0806,-2.0802,-2.0799,-2.0888,-2.0764,-2.0765,-2.0765,-2.0924,-2.0929,-2.0933,0,0,0,0,0,0,-2.1057,-2.1055,-2.1022,-2.1026,-2.1019,-2.0947,-2.0948,-2.0934,-2.0929,-2.0862,-2.0848,-2.0879,-2.0802,-2.0798,-2.0831,-2.0883,-2.0765,-2.0766,-2.0919,-2.0925,-2.0931,-2.1065,0,0,0,0,0,0,-2.1059,-2.1056,-2.1084,-2.1027,-2.1019,-2.1054,-2.0952,-2.0935,-2.093,-2.0918,-2.0867,-2.0855,-2.0799,-2.0831,-2.0832,-2.0882,-2.0766,-2.0914,-2.0922,-2.0929,-2.1056,-2.1075,-2.1092,0,0,0,0,0,-2.106,-2.1125,-2.1086,-2.1084,-2.1053,-2.1058,-2.1053,-2.0987,-2.0935,-2.0963,-2.0921,-2.0857,-2.0878,-2.0836,-2.0835,-2.0887,-2.091,-2.092,-2.0928,-2.1048,-2.1072,-2.1091,0,0,0,0,0,0,-2.1189,-2.1116,-2.1072,-2.112,-2.1097,-2.1035,-2.1068,-2.1014,-2.1004,-2.0993,-2.0912,-2.0902,-2.0946,-2.0919,-2.0873,-2.0961,-2.0884,-2.0894,-2.0976,-2.0997,-2.1015,-2.102,-2.0767,0,0,0,0,0,-2.1224,-2.1233,-2.1169,-2.1218,-2.1208,-2.1141,-2.1141,-2.1092,-2.1064,-2.1053,-2.1013,-2.0989,-2.099,-2.0992,-2.099,-2.1053,-2.104,-2.1088,-2.1106,-2.1121,-2.1129,-2.1162,-2.1183,-2.0962,-2.0962,-2.0962,0,0,-2.1294,-2.1255,-2.1266,-2.1243,-2.1218,-2.1231,-2.1133,-2.115,-2.1159,-2.1055,-2.1084,-2.1055,-2.1023,-2.1071,-2.1091,-2.1051,-2.1188,-2.1132,-2.1145,-2.1145,-2.1174,-2.1195,-2.1213,-2.0968,-2.0967,-2.0966,0,0,-2.1429,-2.14,-2.1438,-2.1417,-2.1381,-2.1337,-2.1347,-2.1295,-2.1271,-2.1299,-2.1222,-2.1233,-2.1236,-2.1217,-2.1208,-2.134,-2.1281,-2.1341,-2.1434,-2.1467,-2.1485,-2.15,-2.1547,-2.1565,-2.1351,-2.1351,-2.1351,0,-2.1521,-2.1536,-2.1465,-2.1487,-2.148,-2.1388,-2.1427,-2.141,-2.1376,-2.1374,-2.133,-2.1334,-2.1306,-2.1349,-2.1382,-2.1378,-2.1387,-2.1346,-2.1488,-2.1502,-2.1515,-2.156,-2.1578,-2.1358,-2.1358,-2.1357,-2.1356,0,-2.1651,-2.1663,-2.1698,-2.1668,-2.1665,-2.1696,-2.1631,-2.1637,-2.1591,-2.1552,-2.1583,-2.1546,-2.1535,-2.1543,-2.1497,-2.1581,-2.1557,-2.1502,-2.1424,-2.1545,-2.1586,-2.1602,-2.1369,-2.1367,-2.1364,-2.1362,0,0,-2.1862,-2.1795,-2.1809,-2.1795,-2.1751,-2.1759,-2.1787,-2.1777,-2.1784,-2.1765,-2.1787,-2.1794,-2.1743,-2.1733,-2.1685,-2.1714,-2.1823,-2.1655,-2.1653,-2.1688,-2.1915,-2.1956,-2.1977,-2.1784,-2.1787,-2.179,-2.1917,0,-2.1986,-2.2028,-2.1968,-2.2024,-2.2035,-2.1951,-2.1975,-2.1952,-2.1918,-2.1923,-2.1885,-2.1892,-2.1824,-2.1818,-2.1843,-2.1804,-2.1867,-2.1794,-2.1805,-2.1806,-2.1814,-2.1998,-2.204,-2.2162,-2.1933,-2.1935,-2.1937,0,-2.2136,-2.2125,-2.2183,-2.2138,-2.214,-2.2163,-2.215,-2.2156,-2.2129,-2.2103,-2.2094,-2.2037,-2.2063,-2.1989,-2.2024,-2.1976,-2.1977,-2.196,-2.1963,-2.196,-2.1878,-2.2,-2.22,-2.2218,-2.1961,-2.1959,-2.1958,0,-2.2284,-2.2284,-2.2319,-2.231,-2.2258,-2.2276,-2.2256,-2.2225,-2.2224,-2.2213,-2.2212,-2.2205,-2.2201,-2.2198,-2.2142,-2.2093,-2.2185,-2.2106,-2.2164,-2.2166,-2.2186,-2.2185,-2.2388,-2.2189,-2.2188,-2.2188,-2.2188,0,-2.2428,-2.2467,-2.2385,-2.2406,-2.2448,-2.2379,-2.2423,-2.2394,-2.2369,-2.2384,-2.2311,-2.2328,-2.2253,-2.2262,-2.2219,-2.2256,-2.2255,-2.2234,-2.2222,-2.224,-2.2243,-2.2239,-2.2229,-2.2193,-2.2192,-2.2191,-2.219,0,-2.2599,-2.2546,-2.2578,-2.2528,-2.2516,-2.2549,-2.2506,-2.2525,-2.2488,-2.2509,-2.251,-2.2451,-2.2458,-2.2402,-2.2399,-2.237,-2.2428,-2.2401,-2.2437,-2.2428,-2.249,-2.2485,-2.2696,-2.2721,-2.2507,-2.2509,-2.2511,0,-2.2694,-2.2722,-2.2676,-2.2681,-2.2664,-2.2673,-2.2672,-2.2607,-2.2609,-2.2583,-2.2605,-2.2607,-2.2604,-2.262,-2.2578,-2.2576,-2.2548,-2.2623,-2.2547,-2.2566,-2.2549,-2.2548,-2.2551,-2.2638,-2.2641,-2.2643,-2.2645,0,-2.2869,-2.2842,-2.2842,-2.2835,-2.2836,-2.2827,-2.2813,-2.2822,-2.2752,-2.2758,-2.2765,-2.2763,-2.2761,-2.2764,-2.2754,-2.2734,-2.2679,-2.267,-2.2683,-2.2701,-2.2721,-2.2711,-2.2479,-2.2664,-2.2663,-2.2661,-2.266,-2.2659,-2.3004,-2.3026,-2.2997,-2.3001,-2.2985,-2.2974,-2.299,-2.2955,-2.296,-2.2952,-2.2915,-2.2929,-2.2904,-2.2886,-2.2872,-2.2883,-2.2847,-2.2866,-2.2871,-2.2877,-2.2888,-2.272,-2.2881,-2.288,-2.288,-2.2879,-2.2879,0,-2.3174,-2.3153,-2.3157,-2.3141,-2.3145,-2.3094,-2.3077,-2.3084,-2.3097,-2.3079,-2.3079,-2.3088,-2.3092,-2.3051,-2.305,-2.3067,-2.3042,-2.3069,-2.3066,-2.3063,-2.292,-2.2908,-2.309,-2.3089,-2.3089,-2.3089,-2.3089,-2.3089,-2.3263,-2.3298,-2.3268,-2.3295,-2.3273,-2.3286,-2.3281,-2.3273,-2.3258,-2.3271,-2.3274,-2.3248,-2.3222,-2.3218,-2.322,-2.3208,-2.3211,-2.3247,-2.3227,-2.3093,-2.3073,-2.3053,-2.3042,-2.3249,-2.3249,-2.3369,-2.337,-2.3371]},{"header":{"parameterUnit":"m.s-1","parameterCategory":1,"la1":30.2991,"la2":30.254,"lo1":-89.0895,"lo2":-89.0444,"dy":0.0017,"dx":0.0017,"nx":28,"ny":28,"refTime":"2024-06-08T09:00:00:Z","depth":0,"parameterNumber":3,"parameterNumberName":"V-component_of_WINDS"},"data":[0,0,0,0,0,0,0,0,0,0,0,0,0,0,0,0,0,0,0,0,0,0,0,0,0,0,0,0,0,0,0,0,0,0,0,0,0,0,0,0,0,0,0,0,0,0,0,0,0,0,0,0,0,0,0,0,0,0,2.3298,2.3297,0,2.3248,2.3247,2.3247,2.3253,2.3254,2.3255,2.3255,2.3197,2.3195,2.3192,0,0,0,0,0,0,0,0,0,0,0,0,0,2.3394,2.3392,2.3298,2.3297,2.3297,2.3248,2.3247,2.3247,2.3253,2.3254,2.3255,2.3256,2.3198,2.3195,2.3192,0,0,0,0,0,0,0,0,0,0,0,0,0,2.3349,2.3391,2.3298,2.3294,2.3293,2.3248,2.3247,2.3246,2.3253,2.3254,2.3255,2.3256,2.3199,2.3195,2.3192,2.3145,0,0,2.3181,2.318,0,0,0,0,0,0,0,0,2.3351,2.3345,2.3295,2.3294,2.3293,2.3258,2.326,2.3212,2.3252,2.3268,2.3256,2.3257,2.3216,2.3211,2.3199,2.3142,2.314,2.3181,2.3179,2.3177,2.3176,0,0,0,0,0,0,0,2.3354,2.3347,2.3278,2.3295,2.3293,2.3293,2.3288,2.3251,2.3235,2.3267,2.3267,2.3261,2.3215,2.3202,2.3197,2.3139,2.3181,2.3178,2.3176,2.3174,2.3042,2.3041,0,0,0,0,0,0,2.3359,2.335,2.328,2.3277,2.3326,2.3291,2.3285,2.3268,2.3236,2.3232,2.326,2.3262,2.3207,2.3201,2.3195,2.3138,2.3177,2.3174,2.3172,2.3044,2.3042,2.304,0,0,0,0,0,0,2.3361,2.3353,2.3282,2.3313,2.3304,2.3288,2.3269,2.3266,2.3253,2.3231,2.3228,2.325,2.3208,2.32,2.3158,2.3136,2.3172,2.3169,2.3045,2.3043,2.3041,2.3024,0,0,0,0,0,0,2.3364,2.3354,2.3337,2.3313,2.3303,2.3247,2.3267,2.3265,2.3248,2.3249,2.322,2.3216,2.3208,2.3163,2.3155,2.3132,2.3166,2.3047,2.3044,2.3042,2.3026,2.3022,2.3018,0,0,0,0,0,2.3367,2.3332,2.3336,2.3327,2.3282,2.3246,2.3239,2.3233,2.3246,2.3228,2.3214,2.3217,2.3141,2.3159,2.3149,2.3125,2.3048,2.3045,2.3042,2.3028,2.3023,2.3018,0,0,0,0,0,0,2.3351,2.3329,2.3333,2.3289,2.327,2.3247,2.3224,2.3227,2.3201,2.3203,2.3194,2.3188,2.3145,2.3131,2.3152,2.3079,2.3096,2.3091,2.3089,2.3083,2.3079,2.3082,2.3163,0,0,0,0,0,2.3343,2.3318,2.3299,2.3262,2.3253,2.324,2.3224,2.3222,2.32,2.319,2.3173,2.315,2.3121,2.3102,2.3074,2.3025,2.3018,2.3004,2.3,2.2996,2.2991,2.2964,2.2958,2.303,2.303,2.303,0,0,2.3325,2.331,2.3294,2.3259,2.3243,2.3216,2.3233,2.3202,2.3181,2.3185,2.3145,2.3132,2.3105,2.306,2.3039,2.3047,2.297,2.2992,2.299,2.2986,2.296,2.2954,2.2948,2.3028,2.3028,2.3028,0,0,2.3277,2.3264,2.3232,2.3217,2.3195,2.3187,2.3179,2.3157,2.3149,2.3109,2.3112,2.3086,2.3035,2.3017,2.3001,2.2949,2.295,2.294,2.2916,2.289,2.2884,2.2879,2.2859,2.2853,2.2935,2.2935,2.2935,0,2.3256,2.3217,2.3215,2.3185,2.3169,2.3175,2.3142,2.3126,2.3095,2.3083,2.3093,2.3031,2.3014,2.2964,2.2952,2.2939,2.2929,2.2942,2.2886,2.288,2.2875,2.2857,2.285,2.2934,2.2934,2.2934,2.2934,0,2.3192,2.3165,2.3142,2.3114,2.3096,2.3064,2.3056,2.3038,2.3037,2.3028,2.2987,2.2967,2.2935,2.2924,2.2922,2.2874,2.288,2.2888,2.2905,2.2867,2.285,2.2843,2.2932,2.2933,2.2933,2.2933,0,0,2.313,2.3104,2.3096,2.3084,2.306,2.3038,2.3007,2.2978,2.2962,2.2941,2.2913,2.2872,2.288,2.2862,2.2858,2.2836,2.2795,2.2846,2.2846,2.2837,2.2741,2.2734,2.2726,2.2797,2.2796,2.2795,2.2743,0,2.308,2.3027,2.3025,2.2976,2.295,2.2956,2.2929,2.2911,2.2902,2.2877,2.2867,2.2838,2.2851,2.284,2.2818,2.2805,2.2776,2.2809,2.2769,2.2768,2.2774,2.2716,2.2708,2.266,2.2736,2.2735,2.2734,0,2.3013,2.2993,2.2942,2.2923,2.2912,2.2888,2.2862,2.284,2.2819,2.2814,2.2795,2.2795,2.2762,2.2782,2.2735,2.2757,2.2742,2.2733,2.2731,2.2725,2.2747,2.2708,2.2644,2.2637,2.2723,2.2724,2.2725,0,2.2972,2.2931,2.2896,2.2885,2.2863,2.2846,2.2835,2.2817,2.28,2.2777,2.2766,2.2739,2.2723,2.2701,2.2693,2.2709,2.2646,2.2666,2.264,2.264,2.2624,2.2625,2.2556,2.2617,2.2617,2.2617,2.2617,0,2.2914,2.2882,2.2877,2.2855,2.282,2.2818,2.2782,2.2772,2.2756,2.2731,2.2734,2.271,2.2702,2.2676,2.267,2.2632,2.2625,2.2618,2.2617,2.2617,2.2618,2.2605,2.2607,2.2615,2.2615,2.2616,2.2616,0,2.2861,2.2857,2.2818,2.2802,2.2797,2.2771,2.2756,2.2734,2.2727,2.2695,2.2688,2.2676,2.2646,2.2637,2.2599,2.2595,2.255,2.2552,2.2558,2.2557,2.2531,2.2533,2.245,2.2438,2.2508,2.2508,2.2507,0,2.2824,2.28,2.2782,2.2767,2.2757,2.2732,2.2716,2.2713,2.2696,2.2672,2.2653,2.2624,2.2601,2.2552,2.2539,2.2511,2.2511,2.2484,2.2506,2.2508,2.2509,2.251,2.2507,2.2479,2.2478,2.2477,2.2477,0,2.2758,2.2758,2.2736,2.2714,2.2695,2.2677,2.2659,2.2646,2.2641,2.2621,2.2592,2.2574,2.2539,2.2509,2.2481,2.2468,2.2471,2.2471,2.2463,2.2462,2.2466,2.2462,2.2544,2.2472,2.2472,2.2473,2.2473,2.2473,2.2711,2.269,2.2675,2.2651,2.2638,2.2622,2.2601,2.2593,2.2569,2.2541,2.2541,2.2509,2.249,2.2453,2.2439,2.2413,2.242,2.2409,2.2406,2.2403,2.24,2.2472,2.2408,2.2408,2.2408,2.2408,2.2408,0,2.2644,2.2636,2.2614,2.259,2.2571,2.2579,2.256,2.2543,2.2516,2.2499,2.2477,2.2444,2.2416,2.2402,2.2374,2.2355,2.2356,2.2348,2.2348,2.2345,2.2396,2.2405,2.2348,2.2348,2.2348,2.2348,2.2348,2.2348,2.2607,2.2573,2.2571,2.253,2.2521,2.2492,2.2481,2.2466,2.2452,2.2416,2.2394,2.2386,2.2369,2.2341,2.2315,2.2312,2.23,2.2291,2.2288,2.2335,2.2341,2.2347,2.2356,2.2289,2.2289,2.224,2.2239,2.2239]}]]